Location: Mentone
(34.5413°N, 85.5351°W)
Time: 09:28:21
(UTC-05:00)

Vanguard 1 - Visible Passes

Search period start: 01 April 2015 00:00
Search period end: 11 April 2015 00:00
Orbit: 653 x 3833 km, 34.2° (Epoch: 30 March)

Date Brightness Start Highest point End Pass type
(mag) Time Alt. Az. Time Alt. Az. Time Alt. Az.
01 Apr 12.3 20:32:50 10° W 20:39:21 28° SSW 20:48:39 11° SSE visible
02 Apr 12.7 20:55:04 10° WSW 21:01:04 20° SSW 21:09:06 10° SSE visible
03 Apr 13.0 21:18:20 10° SW 21:22:53 14° SSW 21:28:00 10° S visible
04 Apr 11.9 19:16:58 10° W 19:22:11 28° SSW 19:30:04 10° SSE visible
05 Apr 12.4 19:38:59 10° WSW 19:43:45 20° SSW 19:50:14 10° SSE visible
06 Apr 12.7 20:01:54 10° SW 20:05:23 13° SSW 20:09:20 10° S visible
